User: anonymous   Login
Location: Christian Reformed Church
(43.0975°N, 93.8113°W)
Time: 02:06:01
(UTC+00:00)
Language:

NOSS 8 (A) - Orbit

View from above orbital plane
View from above orbital plane
View from above satellite
View from above satellite

Ground track
Ground track

The orbit is defined by the following mean orbital elements,

1 17997U          26039.80063303 +.00000000 +00000-0 +96860-3 0 00001
2 17997  63.2916 208.7310 0699651 105.6532 262.2809 14.08965758    03
Epoch (UTC): 08 February 2026 19:12:54
Eccentricity: 0.0699651
inclination: 63.2916°
perigee height: 356 km
apogee height: 1370 km
right ascension of ascending node: 208.7310°
argument of perigee: 105.6532°
revolutions per day: 14.08965758
mean anomaly at epoch: 262.2809°

The dashed part of the orbit path shows where the satellite is in the earth's shadow,  

DLR